Regional Weather Roundup
Issued by NWS

Home | Current Version | Previous Version | Graphics & Text | Print | Product List | Glossary On
Versions: 1 2 3 4 5 6 7 8 9 10 11 12 13 14 15 16 17 18 19 20 21 22 23 24 25 26 27 28 29 30 31 32 33 34 35 36 37 38 39 40 41 42 43 44 45 46 47 48 49 50
000
ASUS44 KMEG 222010
RWRTN
TENNESSEE HOURLY STATE WEATHER ROUNDUP
NATIONAL WEATHER SERVICE MEMPHIS TN
300 PM CDT SUN APR 22 2018

TNZ002-004-019-021-049-052-054-088>092-222100-
WEST TENNESSEE

CITY           SKY/WX    TMP DP  RH WIND       PRES   REMARKS
MEMPHIS INTL   PTSUNNY   66  62  87 S8        29.87F
NWS MEMPHIS      N/A     60 N/A N/A MISG        N/A
JACKSON        HVY RAIN  60  60 100 NE8       29.93F VSB 1
DYERSBURG      RAIN      59  58  96 E16       29.90F
SOMERVILLE     PTSUNNY   61  61 100 CALM      29.89S FOG
COVINGTON      CLOUDY    61  61 100 SE5       29.91S FOG
UNION CITY     CLOUDY    59  57  94 E9G15     29.95F FOG
BOLIVAR        FOG       61  59  94 N6        29.91F VSB 3/4
PARIS          CLOUDY    59  57  94 E14       29.98F
HUNTINGDON     CLOUDY    59  59 100 E9G18     29.96F FOG
LEXINGTON      CLOUDY    61  59  94 E8        29.95F FOG
SELMER         CLOUDY    61  61 100 VRB6      29.91F FOG
SAVANNAH       CLOUDY    63  61  94 E8G16     29.93F
$$

TNZ008-025-027-028-033-062-065-066-222100-
NORTH MIDDLE TENNESSEE

CITY           SKY/WX    TMP DP  RH WIND       PRES   REMARKS
NASHVILLE      LGT RAIN  59  56  89 E13       30.05F
PORTLAND       MOSUNNY   57  55  94 E8G14     30.09F FOG
CLARKSVILLE    LGT RAIN  60  55  83 SE14G23   30.04F
SMYRNA         LGT RAIN  59  57  93 E9        30.06F
COOKEVILLE     MOSUNNY   57  55  94 E12       30.11F FOG
LIVINGSTON     CLEAR     57  54  88 SE7       30.15F FOG
GALLATIN       PTSUNNY   57  57 100 E7G14     30.11F
CROSSVILLE     LGT RAIN  54  52  93 E10       30.17F FOG
ROCKWOOD       PTCLDY    55  52  88 CALM      30.18F FOG
$$

TNZ061-075-076-078-094-096-097-222100-
SOUTH MIDDLE TENNESSEE

CITY           SKY/WX    TMP DP  RH WIND       PRES   REMARKS
LEWISBURG      CLOUDY    59  57  94 E7        30.01F
FAYETTEVILLE   CLOUDY    59  57  94 SE8G16    30.01F FOG
TULLAHOMA      CLOUDY    59  57  94 SE7       30.04F
WINCHESTER     PTSUNNY   59  55  88 SE10G17   30.05F FOG
MCMINNVILLE    PTSUNNY   59  55  88 E9        30.07F
COLUMBIA       CLOUDY    59  59 100 E12G20    29.99F
SHELBYVILLE    CLOUDY    59  57  94 E12       30.03F
$$

TNZ017-018-042-046-047-222100-
NORTHEAST TENNESSEE

CITY           SKY/WX    TMP DP  RH WIND       PRES   REMARKS
TRI CITIES     CLOUDY    66  49  54 SE9       30.21F
ELIZABETHTON   FAIR      64  48  55 SE8       30.22F
$$

TNZ012-013-036-069-073-074-222100-
CENTRAL EAST TENNESSEE

CITY           SKY/WX    TMP DP  RH WIND       PRES   REMARKS
KNOXVILLE      CLOUDY    66  50  56 SE6       30.16F
OAK RIDGE      LGT RAIN  65  50  58 CALM      30.18F
DOWNTOWN KNOXV CLOUDY    68  46  45 CALM      30.17F
GATLINBURG     CLOUDY    68  50  52 CALM      30.17F
MORRISTOWN     MOSUNNY   66  50  55 SE6G14    30.17F
JACKSBORO      SUNNY     68  45  42 S9G15     30.20F
$$

TNZ083-085-099-222100-
SOUTHEAST TENNESSEE

CITY           SKY/WX    TMP DP  RH WIND       PRES   REMARKS
CHATTANOOGA    RAIN      57  55  93 NE9       30.11F FOG
DAYTON         MOCLDY    57  57 100 VRB5      30.14F
$$

SKY/WX REPORTED AS FAIR MEANS FEW OR NO CLOUDS BELOW
12 THOUSAND FEET.





USA.gov is the U.S. government's official web portal to all federal, state and local government web resources and services.